STARLINK-34533, 64715

Orbit data source: Space-Track

STARLINK-34533, 64715 is a payload satellite owned by SpaceX/Seattle (US) in LEO that was launched on Sat, 28 Jun 2025 UTC via an FALCON 9 launch vehicle from the Air Force Western Test Range (AFWTR). Payload-class satellites include a variety of spacecraft equipped with specific instruments for various scientific and technological missions. These include communications satellites like Starlink; space stations such as the ISS; scientific satellites like the Hubble; Earth observation satellites from companies like Planet Labs, Umbra, and HawkEye 360; GPS; miniature CubeSats for education and research; and military/defense satellites.

Not visible in the next 10 days
Identifier
64715, 2025-142V
Orbit
LEO
Last TLE update
8 hours ago
Origin
Manufacturer
SpaceX/Seattle
Mission
Operational spacecraft
Bus & Motor
STARLINK V2MO, Unknown motor
Mass
575 kg wet, ~530 kg dry
Launch date (UTC)
2025-06-28 (1 week ago)
Launch vehicle
FALCON 9
Launch site
Air Force Western Test Range (AFWTR)
Object type
Payload
Rocket body
Debris
Shape & HBR
Unknown
Radar Cross Section
RCS unknown

Expand to show TLE details & history

TLE from 8 hours ago
0 STARLINK-34533
1 64715U 25142V   25186.58335648 -.01265203  00000-0 -49706-2 0  9990
2 64715  69.9945 231.3053 0003825 277.5433  74.8008 15.89046679  2063
Epoch: 2025-07-05T14:00Z
TLE epoch observation values (Epoch: 2025-07-05T14:00:01.999Z)
Latitude
-7.31101°
Longitude
94.8155°
Altitude
308.042 km
Speed
7.723 km/s
True Right ascension
15h 14m 34s
True Declination
-7° 15' 53"
Sunlit
Object was in full shadow at epoch
Visualization orbit readout
Latitude
-14.91398°
Longitude
-78.00159°
Altitude
312.988 km
Speed
7.72 km/s
Apparent Right ascension
01h 28m 46s
Apparent Declination
-33° 31' 47"
Sunlit
Object is in daylight
Visualization observer readout
Local Sidereal Time
10:20:49
Azimuth
264.492° W
Elevation
-52.24°
Doppler factor
1
Orbital elements
Apogee altitude
305.376 km
Perigee altitude
300.266 km
Semi-major axis
6,680.958 km
Eccentricity
0.00038
Inclination
69.9945°
RAAN
231.3053°
Arg. of periapsis
277.5433°
True anomaly
Unknown
Mean anomaly
74.8008°
Eccentric anomaly
Unknown
Mean motion
3.97452 °/min
Orbital period
90.58 mins
BSTAR
-0.0049706
Loading maneuver chart data...
Loading SW <> Apogee altitude chart data...
Loading historical data...
Loading historical data...
Loading historical data...
Loading historical data...
Loading historical data...
Loading historical data...
Loading historical data...

STARLINK-34533 Visibility

Observer location: undefined°, undefined°

STARLINK-34533 is likely not visible in the next few days
Span
Click to sort rows by Start time (UTC) header in descending order
Start Az.
Max El. time (UTC)
Max El. Az.
Max El.
End time (UTC)
End Az.
|